DW2217 Weather Reports


time (UTC)temp
C
wind
direction
speed
KPH
gust
KPH
rain 1hr
cm
rain 24hr
cm
rain mn
cm
humidity
%
barometer
mb
20260906194607 20 331 6.4 11.3 0.00 0.23 0.23 42 1013.3
20260906194103 20 40 1.6 8.0 0.00 0.23 0.23 43 1013.6
20260906193557 20 312 8.0 11.3 0.00 0.23 0.23 43 1013.4
20260906193052 20 274 6.4 8.0 0.00 0.23 0.23 43 1013.3
20260906192548 20 303 9.7 11.3 0.00 0.23 0.23 44 1013.7
20260906192047 20 314 8.0 11.3 0.00 0.23 0.23 43 1013.6
20260906191542 20 291 4.8 8.0 0.00 0.23 0.23 44 1013.7
20260906191041 20 274 8.0 11.3 0.00 0.23 0.23 44 1013.7
20260906190541 20 282 8.0 11.3 0.00 0.23 0.23 43 1013.7
20260906190036 20 306 8.0 14.5 0.00 0.23 0.23 42 1013.8
20260906185535 20 302 4.8 8.0 0.00 0.23 0.23 44 1013.8
20260906185034 20 288 3.2 8.0 0.00 0.23 0.23 43 1013.6
20260906184529 21 300 4.8 8.0 0.00 0.23 0.23 43 1013.7
20260906184024 21 279 11.3 14.5 0.00 0.23 0.23 41 1013.7
20260906183521 20 13 8.0 11.3 0.00 0.23 0.23 43 1013.6
20260906183016 20 275 9.7 14.5 0.00 0.23 0.23 41 1013.8
20260906182511 20 254 4.8 4.8 0.00 0.23 0.23 42 1013.8
20260906182007 20 276 11.3 11.3 0.00 0.23 0.23 43 1014.0
20260906181503 20 299 8.0 11.3 0.00 0.23 0.23 41 1014.1
20260906180958 20 310 9.7 19.3 0.00 0.23 0.23 42 1014.2
20260906180453 20 292 3.2 8.0 0.00 0.23 0.23 43 1013.8
20260906175951 20 268 11.3 14.5 0.00 0.23 0.23 43 1014.0
20260906175445 20 283 11.3 14.5 0.00 0.23 0.23 43 1013.9
20260906174943 20 277 8.0 11.3 0.00 0.23 0.23 44 1014.0
20260906174437 20 312 11.3 14.5 0.00 0.23 0.23 46 1014.0
20260906173933 20 264 3.2 8.0 0.00 0.23 0.23 44 1013.9
20260906173428 20 274 9.7 11.3 0.00 0.23 0.23 45 1014.2
20260906172927 20 94 3.2 8.0 0.00 0.23 0.23 49 1014.2
20260906172424 20 309 4.8 8.0 0.00 0.23 0.23 47 1014.1
20260906171919 18 275 6.4 8.0 0.00 0.23 0.23 49 1014.3
20260906171413 18 269 11.3 14.5 0.00 0.23 0.23 48 1014.2
20260906170909 19 292 6.4 8.0 0.00 0.23 0.23 47 1014.3
20260906170405 18 64 1.6 11.3 0.00 0.23 0.23 48 1014.3
20260906165901 18 307 8.0 14.5 0.00 0.23 0.23 45 1014.4
20260906165355 18 306 4.8 4.8 0.00 0.23 0.23 48 1014.3
20260906164850 18 291 4.8 8.0 0.00 0.23 0.23 48 1014.6
20260906164349 18 308 4.8 4.8 0.00 0.23 0.23 49 1014.5
20260906163845 18 319 0.0 8.0 0.00 0.23 0.23 55 1014.7
20260906163341 18 331 3.2 8.0 0.00 0.23 0.23 54 1014.6
20260906162839 17 68 0.0 3.2 0.00 0.23 0.23 58 1014.7
20260906162337 18 299 4.8 8.0 0.00 0.23 0.23 56 1015.0
20260906161833 18 282 4.8 4.8 0.00 0.23 0.23 56 1014.9
20260906161332 17 39 3.2 3.2 0.00 0.23 0.23 56 1014.9
20260906160831 17 312 3.2 4.8 0.00 0.23 0.23 56 1014.9
20260906160325 17 327 6.4 8.0 0.00 0.23 0.23 57 1015.3
20260906155823 17 297 8.0 11.3 0.00 0.23 0.23 57 1015.1
20260906155317 17 300 4.8 8.0 0.00 0.23 0.23 61 1015.2
20260906154814 17 316 3.2 4.8 0.00 0.23 0.23 64 1015.1
20260906154308 17 331 3.2 4.8 0.00 0.23 0.23 63 1015.3
20260906153806 17 353 1.6 4.8 0.00 0.23 0.23 67 1015.3
20260906153301 16 314 4.8 4.8 0.00 0.23 0.23 68 1015.3
20260906152756 16 298 4.8 4.8 0.00 0.23 0.23 65 1015.3
20260906152251 16 312 3.2 8.0 0.00 0.23 0.23 66 1015.5
20260906151750 16 298 4.8 8.0 0.00 0.23 0.23 67 1015.4
20260906151246 16 285 3.2 4.8 0.00 0.23 0.23 64 1015.5
20260906150742 16 324 4.8 8.0 0.00 0.23 0.23 67 1015.4
20260906150237 16 286 4.8 8.0 0.00 0.23 0.23 69 1015.6
20260906145736 16 11 3.2 4.8 0.00 0.23 0.23 69 1015.6
20260906145234 16 0 3.2 8.0 0.00 0.23 0.23 74 1015.6
20260906144730 15 64 1.6 11.3 0.00 0.23 0.23 68 1015.6
20260906144225 15 58 0.0 3.2 0.00 0.23 0.23 71 1015.6
20260906143724 15 352 3.2 8.0 0.00 0.23 0.23 72 1015.6
20260906143222 15 331 3.2 8.0 0.00 0.23 0.23 70 1015.6
20260906142721 15 297 6.4 11.3 0.00 0.23 0.23 75 1015.7
20260906142216 15 342 3.2 3.2 0.00 0.23 0.23 77 1015.6
20260906141715 14 7 1.6 4.8 0.00 0.23 0.23 78 1015.8
20260906141210 14 39 1.6 4.8 0.00 0.23 0.23 78 1015.7
20260906140709 14 284 4.8 8.0 0.00 0.23 0.23 79 1015.7
20260906140205 14 327 3.2 4.8 0.00 0.23 0.23 81 1015.7
20260906135701 14 306 4.8 4.8 0.00 0.23 0.23 82 1015.7
20260906135157 13 296 4.8 4.8 0.00 0.23 0.23 84 1015.5
20260906134652 13 308 3.2 4.8 0.00 0.23 0.23 86 1015.7
20260906134147 13 18 0.0 3.2 0.00 0.23 0.23 89 1015.6
20260906133643 13 334 3.2 3.2 0.00 0.23 0.23 89 1015.4
20260906133138 13 323 4.8 4.8 0.00 0.23 0.23 89 1015.5
20260906132633 13 5 0.0 3.2 0.00 0.23 0.23 90 1015.3
20260906132129 13 1 3.2 3.2 0.00 0.23 0.23 92 1015.6
20260906131624 13 71 0.0 3.2 0.00 0.23 0.23 93 1015.4
20260906131119 13 25 1.6 3.2 0.00 0.23 0.23 95 1015.6
20260906130615 13 24 0.0 3.2 0.00 0.23 0.23 95 1015.5
20260906130109 13 23 0.0 3.2 0.00 0.23 0.23 97 1015.6
20260906125606 13 334 3.2 4.8 0.00 0.23 0.23 98 1015.7
20260906125100 13 355 0.0 4.8 0.00 0.23 0.23 98 1015.7
20260906124556 13 10 0.0 3.2 0.00 0.23 0.23 98 1015.7
20260906124051 13 10 0.0 0.0 0.00 0.23 0.23 98 1015.6
20260906123550 13 10 0.0 3.2 0.00 0.23 0.23 98 1016.0
20260906123046 13 10 0.0 0.0 0.00 0.23 0.23 98 1015.7
20260906122544 13 10 1.6 3.2 0.00 0.23 0.23 98 1015.7
20260906122041 13 10 0.0 3.2 0.00 0.23 0.23 98 1015.7
20260906121537 13 9 1.6 3.2 0.00 0.23 0.23 98 1015.6
20260906121033 12 12 1.6 3.2 0.00 0.23 0.23 98 1015.7
20260906120528 12 12 0.0 3.2 0.00 0.23 0.23 98 1015.6
20260906120026 12 12 0.0 3.2 0.00 0.23 0.23 98 1015.5
20260906115525 12 12 0.0 3.2 0.00 0.23 0.23 98 1015.5
20260906115020 12 12 0.0 3.2 0.00 0.23 0.23 98 1015.6
20260906114514 12 13 3.2 3.2 0.00 0.23 0.23 98 1015.4
20260906114010 12 13 3.2 3.2 0.00 0.23 0.23 98 1015.0
20260906113509 12 12 0.0 3.2 0.00 0.23 0.23 98 1015.4
20260906113005 12 10 3.2 3.2 0.00 0.23 0.23 98 1015.4
20260906112459 12 14 3.2 3.2 0.00 0.23 0.23 98 1015.3
20260906111955 12 15 0.0 3.2 0.00 0.23 0.23 98 1015.1
20260906111454 12 14 1.6 3.2 0.00 0.23 0.23 98 1015.1
20260906110949 12 15 0.0 3.2 0.00 0.23 0.23 98 1014.9
20260906110445 12 15 1.6 3.2 0.00 0.23 0.23 98 1015.2
20260906105944 12 15 0.0 0.0 0.00 0.23 0.23 98 1015.1
20260906105439 12 14 0.0 0.0 0.18 0.23 0.23 98 1014.9
20260906104935 12 15 0.0 3.2 0.00 0.20 0.20 98 1015.0
20260906104434 12 15 0.0 0.0 0.00 0.20 0.20 98 1014.9
20260906103928 12 14 0.0 3.2 0.00 0.20 0.20 98 1014.9
20260906103426 12 15 0.0 0.0 0.00 0.20 0.20 98 1015.0
20260906102922 12 14 0.0 0.0 0.00 0.20 0.20 98 1014.7
20260906102421 12 14 0.0 0.0 0.00 0.20 0.20 98 1014.7
20260906101916 12 14 0.0 3.2 0.13 0.20 0.20 98 1014.8
20260906101411 12 14 0.0 3.2 0.13 0.20 0.20 98 1014.9
20260906100906 12 13 3.2 3.2 0.00 0.18 0.18 98 1014.9
20260906100405 12 14 0.0 3.2 0.18 0.18 0.18 98 1014.8
20260906095901 12 15 1.6 3.2 0.18 0.18 0.18 98 1014.9
20260906095356 12 15 0.0 3.2 0.13 0.15 0.15 98 1014.8
20260906094856 12 56 0.0 3.2 0.13 0.15 0.15 98 1014.9
20260906094350 12 13 1.6 3.2 0.18 0.13 0.13 98 1014.9
20260906093841 12 13 0.0 0.0 0.18 0.13 0.13 98 1014.8
20260906093337 12 13 0.0 0.0 0.13 0.10 0.10 98 1014.8
20260906092831 12 13 0.0 0.0 0.00 0.08 0.08 98 1014.7
20260906092326 12 13 0.0 3.2 0.00 0.08 0.08 98 1014.7
20260906091821 13 13 0.0 0.0 0.18 0.08 0.08 98 1014.4
20260906091318 12 13 0.0 0.0 0.00 0.05 0.05 97 1014.4
20260906090814 12 13 0.0 0.0 0.13 0.05 0.05 97 1014.5
20260906090312 12 13 0.0 0.0 0.13 0.05 0.05 97 1014.5
20260906085807 12 14 0.0 0.0 0.18 0.03 0.03 97 1014.4
20260906085307 12 13 0.0 0.0 0.00 0.00 0.00 96 1014.3
20260906084800 12 13 0.0 0.0 0.00 0.00 0.00 97 1014.2
20260906084254 12 12 0.0 3.2 0.00 0.00 0.00 97 1014.2
20260906083749 12 12 1.6 3.2 0.00 0.00 0.00 97 1014.2
20260906083245 12 12 0.0 3.2 0.00 0.00 0.00 97 1014.2
20260906082739 12 12 1.6 3.2 0.00 0.00 0.00 97 1014.2
20260906082235 12 12 1.6 3.2 0.00 0.00 0.00 97 1014.2
20260906081731 12 12 0.0 0.0 0.00 0.00 0.00 97 1014.0
20260906081225 12 12 1.6 3.2 0.00 0.00 0.00 97 1014.2
20260906080721 12 12 0.0 0.0 0.00 0.00 0.00 97 1014.0
20260906080217 12 12 0.0 3.2 0.00 0.00 0.00 97 1014.0
20260906075712 12 12 0.0 0.0 0.00 0.00 0.00 97 1013.9
20260906075206 13 12 1.6 3.2 0.00 0.00 0.00 97 1013.9
20260906074702 13 12 1.6 3.2 0.00 0.00 0.00 97 1013.8
20260906074201 13 12 0.0 3.2 0.00 0.00 0.00 96 1013.9
20260906073656 13 12 0.0 3.2 0.00 0.00 0.00 96 1014.0
20260906073151 13 12 0.0 3.2 0.00 0.00 0.00 95 1014.0
20260906072646 13 12 0.0 3.2 0.00 0.00 0.00 95 1014.0
20260906072136 13 12 3.2 3.2 0.00 0.00 0.00 95 1014.2
20260906071632 13 12 0.0 0.0 0.00 0.00 0.00 95 1013.8
20260906071126 13 12 0.0 0.0 0.00 0.00 0.00 95 1013.9
20260906070623 13 12 0.0 0.0 0.00 0.00 0.00 95 1014.0
20260906070119 13 12 0.0 3.2 0.00 0.00 0.00 95 1014.0
20260906065618 13 12 1.6 3.2 0.00 0.00 0.00 94 1013.9
20260906065114 13 12 0.0 0.0 0.00 0.00 0.00 94 1014.0
20260906064609 13 12 0.0 0.0 0.00 0.00 0.00 95 1013.8
20260906064104 13 12 0.0 3.2 0.00 0.00 0.00 95 1013.7
20260906063559 13 12 0.0 0.0 0.00 0.00 0.00 95 1013.7
20260906063055 12 12 1.6 3.2 0.00 0.00 0.00 96 1013.9
20260906062551 13 12 0.0 3.2 0.00 0.00 0.00 96 1013.9
20260906062049 13 12 1.6 3.2 0.00 0.00 0.00 96 1013.7
20260906061546 13 12 1.6 3.2 0.00 0.00 0.00 95 1013.8
20260906061045 13 10 3.2 3.2 0.00 0.00 0.00 93 1013.7
20260906060542 13 13 0.0 0.0 0.00 0.00 0.00 92 1013.8
20260906060039 13 13 0.0 0.0 0.00 0.00 0.00 93 1013.6
20260906055535 13 13 0.0 0.0 0.00 0.00 0.00 93 1013.6
20260906055030 13 13 0.0 0.0 0.00 0.00 0.00 93 1013.7
20260906054530 13 13 0.0 3.2 0.00 0.00 0.00 92 1013.8
20260906054025 13 13 0.0 0.0 0.00 0.00 0.00 93 1013.8
20260906053521 13 13 0.0 0.0 0.00 0.00 0.00 93 1013.9
20260906053017 13 13 0.0 0.0 0.00 0.00 0.00 93 1014.0
20260906052512 13 13 0.0 0.0 0.00 0.00 0.00 93 1013.8
20260906052009 13 13 1.6 3.2 0.00 0.00 0.00 94 1013.9
20260906051504 12 13 0.0 3.2 0.00 0.00 0.00 96 1013.8
20260906051000 13 13 0.0 3.2 0.00 0.00 0.00 96 1013.9
20260906050459 12 13 1.6 3.2 0.00 0.00 0.00 96 1013.9
20260906045954 12 13 1.6 3.2 0.00 0.00 0.00 96 1013.8
20260906045453 13 13 1.6 3.2 0.00 0.00 0.00 96 1013.8
20260906044949 13 13 0.0 0.0 0.00 0.00 0.00 96 1013.8
20260906044444 13 13 0.0 3.2 0.00 0.00 0.00 95 1013.7
20260906043940 13 13 0.0 3.2 0.00 0.00 0.00 95 1013.9
20260906043435 13 12 1.6 3.2 0.00 0.00 0.00 94 1013.9
20260906042931 13 14 0.0 3.2 0.00 0.00 0.00 93 1013.8
20260906042430 13 14 0.0 0.0 0.00 0.00 0.00 92 1013.9
20260906041924 13 14 0.0 0.0 0.00 0.00 0.00 92 1013.7
20260906041421 13 14 0.0 3.2 0.00 0.00 0.00 92 1014.0
20260906040920 13 14 1.6 3.2 0.00 0.00 0.00 92 1014.0
20260906040416 13 14 0.0 3.2 0.00 0.00 0.00 92 1013.9
20260906035911 13 14 0.0 3.2 0.00 0.00 0.00 92 1013.9
20260906035406 13 14 0.0 0.0 0.00 0.00 0.00 93 1014.1
20260906034902 13 14 0.0 0.0 0.00 0.00 0.00 93 1013.8
20260906034356 13 14 0.0 0.0 0.00 0.00 0.00 93 1013.8
20260906033852 13 22 0.0 3.2 0.00 0.00 0.00 93 1013.8
20260906033351 13 22 0.0 3.2 0.00 0.00 0.00 93 1013.8
20260906032848 13 24 0.0 0.0 0.00 0.00 0.00 92 1013.8
20260906032343 13 23 0.0 3.2 0.00 0.00 0.00 92 1013.8
20260906031838 13 24 0.0 0.0 0.00 0.00 0.00 91 1013.6
20260906031334 13 23 0.0 3.2 0.00 0.00 0.00 91 1013.8
20260906030834 13 23 3.2 3.2 0.00 0.00 0.00 90 1013.7
20260906030329 14 24 0.0 3.2 0.00 0.00 0.00 89 1013.9
20260906025823 15 24 0.0 0.0 0.00 0.00 0.00 88 1013.7
20260906025317 15 24 0.0 0.0 0.00 0.00 0.00 86 1013.7
20260906024816 15 24 0.0 0.0 0.00 0.00 0.00 85 1013.7
20260906024315 15 24 0.0 0.0 0.00 0.00 0.00 86 1013.6
20260906023811 15 24 0.0 0.0 0.00 0.00 0.00 85 1013.6
20260906023306 15 24 0.0 0.0 0.00 0.00 0.00 86 1013.7
20260906022802 15 24 0.0 0.0 0.00 0.00 0.00 86 1013.5
20260906022257 15 24 0.0 3.2 0.00 0.00 0.00 85 1013.5
20260906021753 15 24 0.0 0.0 0.00 0.00 0.00 84 1013.5
20260906021252 15 24 0.0 3.2 0.00 0.00 0.00 85 1013.5
20260906020746 15 24 0.0 3.2 0.00 0.00 0.00 86 1013.5
20260906020241 15 24 0.0 3.2 0.00 0.00 0.00 85 1013.4
20260906015735 15 24 0.0 3.2 0.00 0.00 0.00 84 1013.5
20260906015234 15 24 0.0 0.0 0.00 0.00 0.00 82 1013.2
20260906014729 15 24 0.0 0.0 0.00 0.00 0.00 83 1013.4
20260906014225 15 24 0.0 0.0 0.00 0.00 0.00 84 1013.5
20260906013721 16 24 0.0 0.0 0.00 0.00 0.00 83 1013.6
20260906013220 16 24 1.6 3.2 0.00 0.00 0.00 82 1013.3
20260906012715 16 24 0.0 0.0 0.00 0.00 0.00 82 1013.2
20260906012210 16 23 1.6 3.2 0.00 0.00 0.00 83 1013.4
20260906011706 16 22 0.0 3.2 0.00 0.00 0.00 82 1013.4
20260906011200 16 21 0.0 3.2 0.00 0.00 0.00 82 1013.4
20260906010655 16 34 0.0 3.2 0.00 0.00 0.00 80 1013.4
20260906010152 16 34 0.0 3.2 0.00 0.00 0.00 81 1013.3
20260906005651 16 34 0.0 3.2 0.00 0.00 0.00 81 1013.4
20260906005150 16 34 0.0 3.2 0.00 0.00 0.00 80 1013.2
20260906004649 17 33 1.6 3.2 0.00 0.00 0.00 78 1013.3
20260906004145 17 34 0.0 0.0 0.00 0.00 0.00 77 1013.3
20260906003640 17 34 0.0 0.0 0.00 0.00 0.00 77 1013.0
20260906003135 17 34 0.0 0.0 0.00 0.00 0.00 76 1013.0
20260906002630 17 34 0.0 3.2 0.00 0.00 0.00 76 1012.9
20260906002125 17 34 0.0 0.0 0.00 0.00 0.00 76 1012.9
20260906001621 17 34 0.0 0.0 0.00 0.00 0.00 75 1013.1
20260906001120 17 34 0.0 0.0 0.00 0.00 0.00 75 1013.0
20260906000616 17 32 1.6 3.2 0.00 0.00 0.00 75 1013.1
20260906000112 17 30 1.6 3.2 0.00 0.00 0.00 75 1013.1
20260905235610 17 27 3.2 3.2 0.00 0.00 0.00 75 1013.1
20260905235106 17 36 0.0 3.2 0.00 0.00 0.00 74 1012.8
20260905234601 17 36 0.0 0.0 0.00 0.00 0.00 74 1012.9
20260905234056 17 36 0.0 0.0 0.00 0.00 0.00 74 1012.8
20260905233555 17 36 0.0 3.2 0.00 0.00 0.00 75 1012.9
20260905233050 17 36 0.0 0.0 0.00 0.00 0.00 74 1012.8
20260905232546 17 36 0.0 3.2 0.00 0.00 0.00 75 1012.6
20260905232041 18 36 0.0 0.0 0.00 0.00 0.00 75 1012.8
20260905231536 18 36 0.0 3.2 0.00 0.00 0.00 74 1012.8
20260905231033 18 53 0.0 0.0 0.00 0.00 0.00 75 1012.7
20260905230532 18 55 0.0 3.2 0.00 0.00 0.00 75 1012.7
20260905230031 18 59 0.0 4.8 0.00 0.00 0.00 73 1012.5
20260905225525 18 24 0.0 0.0 0.00 0.00 0.00 74 1012.7
20260905225021 18 24 0.0 0.0 0.00 0.00 0.00 74 1012.5
20260905224515 18 24 1.6 3.2 0.00 0.00 0.00 75 1012.5
20260905224015 18 31 0.0 3.2 0.00 0.00 0.00 75 1012.5
20260905223512 18 31 0.0 3.2 0.00 0.00 0.00 74 1012.4
20260905223007 18 32 0.0 0.0 0.00 0.00 0.00 74 1012.4
20260905222502 18 31 0.0 3.2 0.00 0.00 0.00 74 1012.3
20260905221957 18 31 0.0 0.0 0.00 0.00 0.00 74 1012.3
20260905221454 18 31 0.0 0.0 0.00 0.00 0.00 74 1012.2
20260905220949 18 31 0.0 0.0 0.00 0.00 0.00 74 1012.3
20260905220445 18 31 0.0 3.2 0.00 0.00 0.00 73 1012.1
20260905215944 19 31 1.6 3.2 0.00 0.00 0.00 72 1012.2
20260905215440 19 31 0.0 3.2 0.00 0.00 0.00 72 1012.0
20260905214936 19 38 0.0 3.2 0.00 0.00 0.00 72 1012.0
20260905214432 19 40 0.0 3.2 0.00 0.00 0.00 73 1011.7
20260905213931 20 42 1.6 3.2 0.00 0.00 0.00 71 1011.6
20260905213428 20 46 1.6 3.2 0.00 0.00 0.00 72 1011.7
20260905212923 20 40 0.0 0.0 0.00 0.00 0.00 70 1011.8
20260905212417 20 42 0.0 3.2 0.00 0.00 0.00 70 1011.6
20260905211916 20 105 0.0 0.0 0.00 0.00 0.00 72 1011.6
20260905211412 20 45 1.6 3.2 0.00 0.00 0.00 71 1011.7
20260905210909 20 48 0.0 3.2 0.00 0.00 0.00 71 1011.6
20260905210403 19 49 0.0 3.2 0.00 0.00 0.00 72 1011.4
20260905205903 19 39 0.0 3.2 0.00 0.00 0.00 71 1011.6
20260905205357 19 21 3.2 3.2 0.00 0.00 0.00 70 1011.4
20260905204856 20 23 1.6 3.2 0.00 0.00 0.00 71 1011.3
20260905204353 20 30 0.0 4.8 0.00 0.00 0.00 69 1011.4
20260905203851 20 77 0.0 0.0 0.00 0.00 0.00 70 1011.3
20260905203346 20 35 1.6 3.2 0.00 0.00 0.00 71 1011.4
20260905202837 20 80 1.6 3.2 0.00 0.00 0.00 70 1011.5
20260905202336 20 36 1.6 4.8 0.00 0.00 0.00 68 1011.3
20260905201833 20 68 0.0 3.2 0.00 0.00 0.00 68 1011.2
20260905201328 20 56 0.0 8.0 0.00 0.00 0.00 69 1011.1
20260905200822 20 96 0.0 3.2 0.00 0.00 0.00 69 1011.1
20260905200318 20 37 1.6 4.8 0.00 0.00 0.00 71 1011.1
20260905195816 20 338 3.2 3.2 0.00 0.00 0.00 72 1011.0
20260905195311 20 229 0.0 0.0 0.00 0.00 0.00 71 1011.1